FLOCK 4P-2

Last updated on Sat Dec 28 2019 00:02:03 GMT+0000 (Coordinated Universal Time)

1 44813U 19081K 19361.16733493 .00000548 00000-0 29016-4 0 9994 2 44813 97.5206 58.1061 0013486 129.6235 230.6192 15.19551064 4556
UTC large
Height (km)
Speed (km/s)
/
Latitude / Longitude
Inclination (degrees)
Orbital Period (minutes)
Azimuth
Elevation
Range (km)
Doppler Factor

Next 0 passes for location: London (51.5072 / 0.1276)

Sorry there are no passes over London.